weather.gov     
National Weather Service

Terminal Aerodrome Forecast
NWS Homepage
This page is being discontinued on March 12, 2014.
The same data is available at this site. Please update your bookmarks.
Thank you, and we apologize for the inconvenience.
Please send an email to SR-SRH.Webmaster@noaa.gov with any concerns.


Current Version
Previous Version:    01  02  03  04  05  06  07  08  09  10  11  12  13  14  15  16  17  18  19  20  21  22  23  24  25  26  27  28  29  30  
   31  32  33  34  35  36  37  38  39  40  41  42  43  44  45  
[Printable]
813
FTUS43 KSGF 201700
TAFJLN
TAF
KJLN 201720Z 2018/2118 23010KT P6SM BKN025
      TEMPO 2018/2020 SCT025
     FM202000 22012KT P6SM FEW030 SCT050
     FM210100 VRB04KT P6SM FEW050 SCT100 BKN250 PROB30 2107/2113 4SM
      -TSRA OVC050CB
     FM211300 31008KT P6SM SCT050 OVC150=


U.S. Dept. of Commerce
NOAA National Weather Service
1325 East West Highway
Silver Spring, MD 20910
E-mail: w-nws.webmaster@noaa.gov
Page last modified: May 16, 2007
NATIONAL WEATHER SERVICE: for Safety, for Work, for Fun - FOR LIFE